[[{"header":{"parameterUnit":"m.s-1","parameterCategory":2,"la1":30.2992,"la2":30.254,"lo1":-89.0895,"lo2":-89.0443,"dy":0.0025,"dx":0.0025,"nx":19,"ny":19,"refTime":"2026-04-30T09:00:00:Z","depth":"0","parameterNumber":2,"parameterNumberName":"U-component_of_CURRENTS"},"data":[0,0,0,0.2124,0.2124,0.2117,0.2117,0.2105,0.2105,0,0,0,0,0,0,0,0,0,0,0,0.2126,0.2126,0.2124,0.2125,0.2117,0.2117,0.2105,0.2105,0,0,0,0,0,0,0,0,0,0,0,0.2125,0.2126,0.2126,0.2125,0.2117,0.2117,0.2105,0.2108,0,0,0,0,0,0,0,0,0,0,0.2114,0.2113,0.2126,0.2126,0.2125,0.2117,0.2116,0.2108,0.2108,0.2111,0,0.2119,0,0.2118,0.2105,0.2105,0,0,0,0.2112,0.2113,0.2122,0.2126,0.2125,0.2117,0.2117,0.2108,0.2107,0.2111,0.2119,0.2118,0.2118,0.2105,0.2105,0.2156,0.2156,0,0,0.2112,0.2112,0.2122,0.2122,0.2134,0.2117,0.2117,0.2107,0.2106,0.2119,0.2118,0.2118,0.2105,0.2105,0.2155,0.2156,0,0,0,0.2122,0.2112,0.212,0.2122,0.2125,0.2117,0.2117,0.2106,0.2112,0.2118,0.2118,0.2105,0.2105,0.2155,0.2156,0.2227,0,0,0,0.2122,0.2119,0.212,0.2118,0.2125,0.2114,0.2115,0.2112,0.2111,0.2118,0.2105,0.2105,0.2154,0.2155,0.2224,0.2258,0,0,0,0.2124,0.2118,0.2124,0.2118,0.2122,0.2115,0.2119,0.2112,0.2112,0.2105,0.2105,0.2154,0.2155,0.2221,0.2253,0.2335,0,0,0,0.2115,0.2115,0.2124,0.2126,0.2122,0.2132,0.2119,0.2114,0.2109,0.2105,0.2154,0.2156,0.222,0.225,0.2331,0.2366,0.2386,0,0,0.2108,0.2114,0.2117,0.2125,0.214,0.2131,0.2159,0.2144,0.2133,0.2153,0.2154,0.2225,0.2253,0.2335,0.2437,0.2456,0,0,0,0.211,0.2116,0.2121,0.2134,0.2144,0.2181,0.2165,0.2182,0.2211,0.2139,0.223,0.2246,0.2295,0.2308,0.2323,0.226,0.2161,0.2161,0.2161,0.2091,0.2109,0.212,0.215,0.217,0.221,0.225,0.2276,0.2245,0.2281,0.2308,0.2423,0.2436,0.2448,0.2383,0.231,0.231,0.2311,0.2311,0.2084,0.2088,0.2132,0.2149,0.2208,0.2243,0.2335,0.2352,0.2443,0.2387,0.2432,0.2386,0.2469,0.2394,0.2315,0.2315,0.2314,0.2314,0.2313,0.2063,0.2067,0.2089,0.2133,0.2202,0.2272,0.2383,0.2452,0.2507,0.2563,0.2586,0.2585,0.2518,0.259,0.2591,0.2592,0.2592,0.2592,0.2593,0.2022,0.2047,0.207,0.212,0.2162,0.226,0.2414,0.2507,0.2642,0.2677,0.2677,0.2554,0.2509,0.2496,0.2601,0.2599,0.2598,0.2598,0.2597,0.198,0.2003,0.2033,0.2069,0.2164,0.2217,0.2388,0.2598,0.2727,0.2806,0.2738,0.2746,0.2733,0.272,0.2712,0.2867,0.2867,0.2867,0.2867,0.1952,0.1966,0.2003,0.2049,0.2125,0.22,0.2316,0.2483,0.2691,0.2751,0.2813,0.2734,0.2726,0.2706,0.2693,0.2682,0.2826,0.2826,0.2826,0.193,0.195,0.1959,0.2009,0.2087,0.2157,0.2189,0.229,0.2606,0.2814,0.2725,0.2727,0.2595,0.2587,0.2537,0.2524,0.2499,0,0]},{"header":{"parameterUnit":"m.s-1","parameterCategory":2,"la1":30.2992,"la2":30.254,"lo1":-89.0895,"lo2":-89.0443,"dy":0.0025,"dx":0.0025,"nx":19,"ny":19,"refTime":"2026-04-30T09:00:00:Z","depth":"0","parameterNumber":3,"parameterNumberName":"V-component_of_CURRENTS"},"data":[0,0,0,-0.0262,-0.0262,-0.0295,-0.0296,-0.0349,-0.035,0,0,0,0,0,0,0,0,0,0,0,-0.0247,-0.0247,-0.0262,-0.0262,-0.0295,-0.0296,-0.0349,-0.035,0,0,0,0,0,0,0,0,0,0,0,-0.0247,-0.0247,-0.0247,-0.0262,-0.0295,-0.0296,-0.0349,-0.0323,0,0,0,0,0,0,0,0,0,0,-0.029,-0.0272,-0.0247,-0.0247,-0.0262,-0.0295,-0.0296,-0.0321,-0.0324,-0.0336,0,-0.0334,0,-0.0342,-0.0353,-0.0353,0,0,0,-0.0268,-0.0269,-0.0278,-0.0247,-0.0263,-0.0295,-0.0282,-0.0323,-0.0326,-0.034,-0.0335,-0.0337,-0.0343,-0.0353,-0.0354,-0.0358,-0.0357,0,0,-0.0266,-0.0256,-0.0276,-0.028,-0.0263,-0.0281,-0.0283,-0.0325,-0.0325,-0.0335,-0.0339,-0.0344,-0.0354,-0.0354,-0.0358,-0.0358,0,0,0,-0.0257,-0.0254,-0.0262,-0.0278,-0.0282,-0.0282,-0.0284,-0.0324,-0.0326,-0.0339,-0.0345,-0.0354,-0.0355,-0.0358,-0.0358,-0.0296,0,0,0,-0.0256,-0.0249,-0.0261,-0.0256,-0.0281,-0.0302,-0.0282,-0.0323,-0.0328,-0.0345,-0.0354,-0.0355,-0.0359,-0.0358,-0.0298,-0.0252,0,0,0,-0.0247,-0.0248,-0.0249,-0.0255,-0.0267,-0.0301,-0.0306,-0.0324,-0.0331,-0.0353,-0.0355,-0.0359,-0.0358,-0.03,-0.0257,-0.0217,0,0,0,-0.0239,-0.0223,-0.0249,-0.0232,-0.0267,-0.026,-0.0306,-0.0312,-0.0326,-0.0354,-0.0359,-0.0358,-0.0301,-0.026,-0.022,-0.0125,-0.0104,0,0,-0.0211,-0.0219,-0.0208,-0.0232,-0.0203,-0.0256,-0.0236,-0.028,-0.0319,-0.0348,-0.0348,-0.0297,-0.0257,-0.0218,-0.0081,-0.0061,0,0,0,-0.0194,-0.0182,-0.0179,-0.0171,-0.0181,-0.0183,-0.023,-0.0254,-0.0283,-0.0323,-0.0299,-0.0275,-0.0253,-0.0202,-0.0186,-0.0293,-0.0354,-0.0355,-0.0355,-0.0132,-0.0137,-0.0107,-0.0111,-0.0109,-0.0136,-0.0146,-0.0187,-0.0238,-0.0242,-0.0227,-0.0154,-0.01,-0.0087,-0.0199,-0.024,-0.0239,-0.0239,-0.0239,-0.007,-0.005,-0.0051,-0.0028,-0.0035,-0.0029,-0.0069,-0.0106,-0.0117,-0.0173,-0.0155,-0.0141,-0.0065,-0.0191,-0.0235,-0.0236,-0.0236,-0.0237,-0.0237,-0.0023,-0.0013,-0.0005,0.0032,0.0057,0.0035,0.008,0.0024,-0.0045,-0.0028,0.0017,0.0016,-0.0092,-0.0023,-0.0022,-0.0022,-0.0021,-0.0021,-0.0021,0.0017,0.0029,0.0065,0.0092,0.0126,0.0167,0.0166,0.0176,0.0159,0.011,0.011,-0.007,-0.0088,-0.0094,-0.0015,-0.0016,-0.0017,-0.0017,-0.0018,0.0073,0.0071,0.0135,0.0172,0.0256,0.0361,0.0353,0.0411,0.0387,0.04,0.0134,0.0176,0.0168,0.0156,0.0155,0.0294,0.0294,0.0295,0.0295,0.0112,0.0112,0.0202,0.0276,0.0379,0.0452,0.0618,0.0632,0.0452,0.0327,0.0199,0.0146,0.0138,0.0123,0.0111,0.0107,0.023,0.023,0.0229,0.0157,0.0177,0.0249,0.031,0.0429,0.0579,0.0743,0.0799,0.0495,0.0208,0.0029,0.0032,-0.007,-0.0074,-0.0122,-0.013,-0.0146,0,0]}],[{"header":{"parameterUnit":"m.s-1","parameterCategory":2,"la1":30.2992,"la2":30.254,"lo1":-89.0895,"lo2":-89.0443,"dy":0.0025,"dx":0.0025,"nx":19,"ny":19,"refTime":"2026-04-30T09:00:00:Z","depth":"2","parameterNumber":2,"parameterNumberName":"U-component_of_CURRENTS"},"data":[0,0,0,0.2134,0.2134,0.2129,0.2129,0.2119,0.2119,0,0,0,0,0,0,0,0,0,0,0,0.2135,0.2136,0.2134,0.2134,0.2129,0.2129,0.2119,0.2119,0,0,0,0,0,0,0,0,0,0,0,0.2135,0.2136,0.2136,0.2134,0.2129,0.2129,0.2119,0.2121,0,0,0,0,0,0,0,0,0,0,0.2125,0.2124,0.2136,0.2136,0.2134,0.2129,0.2128,0.2121,0.2121,0.2125,0,0.2133,0,0.2132,0.212,0.212,0,0,0,0.2122,0.2124,0.2133,0.2136,0.2134,0.2129,0.2128,0.2121,0.2121,0.2125,0.2133,0.2133,0.2132,0.212,0.212,0.2172,0.2173,0,0,0.2122,0.2121,0.2133,0.2133,0.2145,0.2128,0.2128,0.212,0.2119,0.2133,0.2132,0.2132,0.212,0.212,0.2172,0.2172,0,0,0,0.2131,0.2122,0.213,0.2134,0.2136,0.2128,0.2128,0.2119,0.2126,0.2132,0.2132,0.212,0.212,0.2171,0.2172,0.2245,0,0,0,0.2131,0.2128,0.2131,0.2128,0.2137,0.2127,0.2127,0.2126,0.2125,0.2132,0.212,0.212,0.217,0.2171,0.2241,0.2274,0,0,0,0.2133,0.2128,0.2134,0.2129,0.2133,0.2127,0.2131,0.2126,0.2126,0.212,0.212,0.217,0.2171,0.2239,0.2269,0.2353,0,0,0,0.2123,0.2125,0.2134,0.2137,0.2134,0.2143,0.2131,0.2128,0.2124,0.212,0.2171,0.2172,0.2238,0.2266,0.235,0.2348,0.2366,0,0,0.2118,0.2124,0.2127,0.2135,0.2151,0.2142,0.2171,0.2159,0.2148,0.2169,0.217,0.2243,0.2269,0.2353,0.242,0.2436,0,0,0,0.212,0.2125,0.2131,0.2144,0.2155,0.2193,0.2178,0.2197,0.2228,0.2155,0.2248,0.2262,0.2313,0.2303,0.2316,0.2178,0.2178,0.2177,0.2177,0.2102,0.2119,0.2131,0.216,0.2182,0.2223,0.2265,0.2292,0.2262,0.2299,0.2325,0.2442,0.2432,0.2442,0.2328,0.2328,0.2329,0.2329,0.2329,0.2096,0.21,0.2143,0.2161,0.2221,0.2258,0.2352,0.2371,0.2462,0.2405,0.2452,0.2384,0.246,0.2335,0.2334,0.2333,0.2332,0.2332,0.2332,0.2076,0.208,0.2102,0.2148,0.2218,0.229,0.2401,0.247,0.2527,0.2583,0.2583,0.2581,0.2499,0.2612,0.2612,0.2613,0.2613,0.2613,0.2614,0.2037,0.2062,0.2085,0.2137,0.218,0.2279,0.2433,0.2525,0.2646,0.267,0.2669,0.2538,0.2529,0.2516,0.2622,0.2621,0.2619,0.2619,0.2618,0.1997,0.202,0.205,0.2086,0.2183,0.2228,0.2403,0.2597,0.2721,0.2789,0.273,0.2724,0.2707,0.2695,0.2686,0.283,0.283,0.283,0.283,0.1969,0.1983,0.2021,0.2068,0.2143,0.2208,0.2271,0.2341,0.2539,0.2554,0.2564,0.2461,0.2461,0.2422,0.2416,0.2397,0.2466,0.2465,0.2464,0.1947,0.1967,0.1977,0.2029,0.2107,0.2157,0.2087,0.1967,0.2131,0.2435,0.2352,0.2835,0.271,0.2699,0.2656,0.264,0.2618,0,0]},{"header":{"parameterUnit":"m.s-1","parameterCategory":2,"la1":30.2992,"la2":30.254,"lo1":-89.0895,"lo2":-89.0443,"dy":0.0025,"dx":0.0025,"nx":19,"ny":19,"refTime":"2026-04-30T09:00:00:Z","depth":"2","parameterNumber":3,"parameterNumberName":"V-component_of_CURRENTS"},"data":[0,0,0,-0.0179,-0.0179,-0.0217,-0.0217,-0.0271,-0.0271,0,0,0,0,0,0,0,0,0,0,0,-0.0165,-0.0165,-0.0179,-0.0179,-0.0217,-0.0217,-0.0271,-0.0271,0,0,0,0,0,0,0,0,0,0,0,-0.0165,-0.0165,-0.0165,-0.0179,-0.0217,-0.0217,-0.0271,-0.0242,0,0,0,0,0,0,0,0,0,0,-0.0206,-0.0188,-0.0165,-0.0165,-0.018,-0.0217,-0.0217,-0.0241,-0.0244,-0.0253,0,-0.0255,0,-0.0262,-0.0274,-0.0274,0,0,0,-0.0185,-0.0186,-0.0196,-0.0165,-0.018,-0.0217,-0.0202,-0.0243,-0.0246,-0.0257,-0.0255,-0.0257,-0.0263,-0.0275,-0.0275,-0.0277,-0.0277,0,0,-0.0183,-0.0173,-0.0194,-0.0198,-0.0184,-0.02,-0.0203,-0.0245,-0.0246,-0.0256,-0.0259,-0.0264,-0.0275,-0.0275,-0.0277,-0.0277,0,0,0,-0.0173,-0.0172,-0.0181,-0.0196,-0.0201,-0.0201,-0.0204,-0.0244,-0.0247,-0.0259,-0.0265,-0.0275,-0.0276,-0.0278,-0.0277,-0.0219,0,0,0,-0.0172,-0.0166,-0.018,-0.0175,-0.02,-0.0222,-0.0202,-0.0244,-0.0249,-0.0264,-0.0275,-0.0276,-0.0278,-0.0278,-0.0222,-0.0176,0,0,0,-0.0164,-0.0165,-0.0167,-0.0174,-0.0188,-0.0222,-0.0227,-0.0246,-0.0252,-0.0274,-0.0276,-0.0278,-0.0278,-0.0224,-0.018,-0.014,0,0,0,-0.0155,-0.0142,-0.0167,-0.0153,-0.0188,-0.0181,-0.0227,-0.0235,-0.0248,-0.0275,-0.0278,-0.0277,-0.0224,-0.0183,-0.0143,-0.0037,-0.0015,0,0,-0.013,-0.0139,-0.0129,-0.0152,-0.0125,-0.0177,-0.0158,-0.0202,-0.0241,-0.0267,-0.0267,-0.0221,-0.018,-0.0141,0.0008,0.0028,0,0,0,-0.0115,-0.0104,-0.0101,-0.0094,-0.0104,-0.0106,-0.0153,-0.0176,-0.0206,-0.0245,-0.0221,-0.0197,-0.0174,-0.0117,-0.01,-0.0274,-0.0274,-0.0274,-0.0274,-0.0059,-0.0063,-0.0033,-0.0036,-0.0035,-0.006,-0.0069,-0.011,-0.0161,-0.0167,-0.0151,-0.008,-0.0018,-0.0005,-0.0164,-0.0164,-0.0164,-0.0164,-0.0164,-0.0,0.002,0.002,0.0043,0.0037,0.0042,0.0006,-0.0031,-0.0042,-0.0099,-0.008,-0.0059,0.0017,-0.0159,-0.016,-0.016,-0.0161,-0.0161,-0.0162,0.0044,0.0054,0.0062,0.01,0.0124,0.0104,0.0152,0.0096,0.0028,0.0044,0.0096,0.0096,-0.0034,0.0048,0.0048,0.0048,0.0049,0.0049,0.0049,0.0081,0.0093,0.0129,0.0157,0.0191,0.0234,0.0235,0.0247,0.0233,0.0188,0.0188,-0.0009,-0.0015,-0.0022,0.0055,0.0054,0.0053,0.0053,0.0052,0.0133,0.0132,0.0197,0.0234,0.0321,0.0435,0.0424,0.0487,0.0463,0.0479,0.0266,0.0259,0.0255,0.0242,0.0242,0.0382,0.0382,0.0382,0.0382,0.0171,0.0171,0.0263,0.0338,0.0445,0.0528,0.0708,0.0723,0.0617,0.0532,0.0525,0.0496,0.048,0.0485,0.0466,0.0468,0.0668,0.0668,0.0669,0.0216,0.0238,0.0311,0.0372,0.0495,0.0661,0.0855,0.0874,0.0714,0.0675,0.0523,0.0411,0.0348,0.0331,0.0316,0.0295,0.0289,0,0]}],[{"header":{"parameterUnit":"m.s-1","parameterCategory":2,"la1":30.2992,"la2":30.254,"lo1":-89.0895,"lo2":-89.0443,"dy":0.0025,"dx":0.0025,"nx":19,"ny":19,"refTime":"2026-04-30T09:00:00:Z","depth":"4","parameterNumber":2,"parameterNumberName":"U-component_of_CURRENTS"},"data":[0,0,0,0.1378,0.1381,0.153,0.1531,0.1633,0.1633,0,0,0,0,0,0,0,0,0,0,0,0.1335,0.1337,0.1378,0.1381,0.153,0.1531,0.1632,0.1633,0,0,0,0,0,0,0,0,0,0,0,0.1335,0.1336,0.1338,0.1382,0.153,0.1531,0.1632,0.1542,0,0,0,0,0,0,0,0,0,0,0.1408,0.1382,0.1336,0.1338,0.1383,0.153,0.1531,0.1538,0.1547,0.154,0,0.1579,0,0.1604,0.1638,0.1638,0,0,0,0.138,0.1375,0.1414,0.1338,0.1384,0.153,0.1463,0.1544,0.1554,0.1552,0.1581,0.1585,0.1606,0.1639,0.1639,0.173,0.173,0,0,0.1372,0.1359,0.1408,0.1421,0.1442,0.1458,0.1467,0.1551,0.1568,0.1581,0.1588,0.1608,0.1639,0.164,0.1729,0.173,0,0,0,0.1349,0.1353,0.1392,0.1416,0.1449,0.1462,0.1473,0.1564,0.1578,0.1589,0.1609,0.164,0.164,0.1729,0.1729,0.1761,0,0,0,0.1344,0.134,0.1389,0.1382,0.1448,0.152,0.1484,0.1573,0.1583,0.1608,0.164,0.1641,0.1728,0.1729,0.1759,0.1767,0,0,0,0.1325,0.1338,0.1361,0.1381,0.1445,0.152,0.1539,0.1576,0.1594,0.1639,0.1641,0.1728,0.1729,0.1757,0.1764,0.1803,0,0,0,0.1297,0.1334,0.1361,0.141,0.1444,0.1521,0.1539,0.1605,0.1646,0.164,0.1728,0.1729,0.1757,0.1763,0.1801,0.1569,0,0,0,0.1319,0.1337,0.1362,0.1389,0.1456,0.1499,0.1571,0.1634,0.1656,0.1693,0.1696,0.176,0.1764,0.1803,0.1633,0,0,0,0,0.1351,0.1373,0.1398,0.145,0.1506,0.1568,0.1632,0.166,0.1728,0.1687,0.1772,0.1774,0.1797,0.1657,0.1735,0.1734,0.1734,0.1734,0.1734,0.1348,0.1382,0.1423,0.1479,0.1534,0.1622,0.1674,0.1726,0.1746,0.1786,0.1809,0.1872,0.1725,0.1823,0.1823,0.1823,0.1824,0.1824,0.1824,0.1353,0.1363,0.1427,0.1482,0.1555,0.1628,0.1724,0.1766,0.1852,0.1845,0.1867,0.1711,0.1827,0.1826,0.1826,0.1826,0.1825,0.1825,0.1825,0.1319,0.1325,0.138,0.145,0.154,0.1641,0.1714,0.1809,0.188,0.1917,0.1787,0.19,0.1887,0.1946,0.1946,0.1947,0.1947,0.1947,0.1947,0.1245,0.1296,0.1328,0.1415,0.1471,0.1565,0.1726,0.1778,0.1877,0.1799,0.1943,0.1913,0.1909,0.1895,0.195,0.195,0.1949,0.1949,0.1949,0.1173,0.121,0.1243,0.1291,0.1384,0.1425,0.1613,0.1675,0.172,0.1701,0.1732,0.1742,0.1711,0.1712,0.1689,0.1687,0.1684,0.1681,0,0.1111,0.1132,0.1158,0.1187,0.1205,0.1327,0.1336,0.1431,0.1533,0.1478,0.1709,0.1741,0.1747,0.1708,0.1705,0.1675,0,0,0,0.1052,0.1078,0.1058,0.1098,0.111,0.1173,0.1319,0.1311,0.1517,0.1505,0.1612,0.163,0.1813,0.196,0.1937,0.1932,0.1908,0,0]},{"header":{"parameterUnit":"m.s-1","parameterCategory":2,"la1":30.2992,"la2":30.254,"lo1":-89.0895,"lo2":-89.0443,"dy":0.0025,"dx":0.0025,"nx":19,"ny":19,"refTime":"2026-04-30T09:00:00:Z","depth":"4","parameterNumber":3,"parameterNumberName":"V-component_of_CURRENTS"},"data":[0,0,0,0.0146,0.0145,0.009,0.0089,0.0018,0.0017,0,0,0,0,0,0,0,0,0,0,0,0.0165,0.0165,0.0146,0.0145,0.009,0.0089,0.0018,0.0017,0,0,0,0,0,0,0,0,0,0,0,0.0166,0.0165,0.0165,0.0145,0.009,0.0089,0.0018,0.0058,0,0,0,0,0,0,0,0,0,0,0.0111,0.0132,0.0165,0.0165,0.0144,0.009,0.0089,0.0059,0.0055,0.0045,0,0.0042,0,0.0032,0.0013,0.0013,0,0,0,0.0136,0.0136,0.0122,0.0165,0.0144,0.009,0.0112,0.0057,0.0052,0.004,0.0041,0.0039,0.0031,0.0013,0.0012,-0.0002,-0.0002,0,0,0.0139,0.0151,0.0126,0.012,0.0137,0.0114,0.011,0.0054,0.0051,0.0041,0.0037,0.0029,0.0012,0.0012,-0.0002,-0.0002,0,0,0,0.0154,0.0154,0.0141,0.0123,0.0115,0.0112,0.0108,0.0053,0.005,0.0036,0.0028,0.0012,0.0011,-0.0003,-0.0002,0.0066,0,0,0,0.0155,0.0163,0.0143,0.0149,0.0116,0.0084,0.0109,0.0054,0.0047,0.0029,0.0012,0.0011,-0.0003,-0.0002,0.0064,0.0109,0,0,0,0.0167,0.0164,0.016,0.015,0.013,0.0084,0.0077,0.0052,0.0043,0.0013,0.0011,-0.0003,-0.0003,0.0062,0.0104,0.0152,0,0,0,0.0177,0.0174,0.0161,0.0157,0.0131,0.0113,0.0077,0.0054,0.0032,0.0012,-0.0003,-0.0002,0.0061,0.0102,0.0149,0.0147,0,0,0,0.0179,0.0174,0.0173,0.016,0.0162,0.012,0.0127,0.008,0.004,0.0013,0.0012,0.0065,0.0104,0.0151,0.0186,0,0,0,0,0.0177,0.0182,0.0179,0.0177,0.0159,0.0166,0.0115,0.0106,0.0081,0.0031,0.0059,0.0082,0.011,0.0099,0.0001,0.0001,0.0001,0.0001,0.0001,0.0205,0.0199,0.0215,0.0212,0.0208,0.0193,0.0197,0.0175,0.0118,0.0123,0.0133,0.0212,0.0201,0.0119,0.0119,0.0119,0.012,0.012,0.012,0.0235,0.0253,0.0261,0.0274,0.0284,0.0291,0.0286,0.026,0.0261,0.02,0.0223,0.0166,0.0127,0.0125,0.0124,0.0124,0.0123,0.0123,0.0122,0.0267,0.0279,0.029,0.033,0.0373,0.0371,0.0432,0.0392,0.0341,0.0353,0.0328,0.0266,0.0266,0.0355,0.0355,0.0355,0.0356,0.0356,0.0356,0.0299,0.0314,0.0357,0.0395,0.0441,0.0497,0.0511,0.0515,0.046,0.042,0.0372,0.0291,0.0283,0.028,0.0363,0.0362,0.0361,0.036,0.036,0.0338,0.0352,0.0419,0.0469,0.0574,0.0611,0.0628,0.0602,0.0607,0.0576,0.0454,0.0448,0.0428,0.0417,0.0417,0.0544,0.0544,0.0545,0,0.0374,0.0381,0.0489,0.0584,0.0674,0.0694,0.0712,0.0695,0.0614,0.0598,0.0607,0.0473,0.0466,0.0442,0.0433,0.0434,0,0,0,0.0414,0.0441,0.0528,0.0617,0.0721,0.0727,0.0718,0.0694,0.0623,0.0611,0.0553,0.0551,0.0463,0.0382,0.0335,0.0326,0.0318,0,0]}]]